Location: *
(17.3280°S, 114.7300°W)
Time: 06:07:04
(UTC+00:00)

Nadezhda 1 Rocket - Pass Details

Date: 05 August 2020
Orbit: 940 x 1006 km, 83.0° (Epoch: 20 September)

Event Time Altitude Azimuth Distance (km) Brightness Sun altitude
Rises 13:10:24 0° 185° (S) 3,691 6.8 -12.9°
Reaches altitude 10° 13:12:55 10° 184° (S) 2,747 6.2 -12.3°
Maximum altitude 13:19:15 89° 273° (W) 999 4.1 -10.8°
Drops below altitude 10° 13:25:36 10° 3° (N) 2,761 6.6 -9.4°
Sets 13:28:08 0° 3° (N) 3,709 7.3 -8.8°
